ISS (ZARYA) 1 25544U 98067A 26165.80282117 .00008449 00000+0 16005-3 0 9998 2 25544 51.6336 311.8940 0004856 186.3522 173.7405 15.49231655571384 POISK 1 36086U 09060A 26165.80282117 .00008449 00000+0 16005-3 0 9996 2 36086 51.6336 311.8940 0004856 186.3522 173.7405 15.49231655571501 CSS (TIANHE) 1 48274U 21035A 26165.80144780 .00021074 00000+0 24953-3 0 9997 2 48274 41.4695 336.5204 0007660 57.6860 302.4720 15.60716016292790 ISS (NAUKA) 1 49044U 21066A 26165.80282117 .00008449 00000+0 16005-3 0 9994 2 49044 51.6336 311.8940 0004856 186.3522 173.7405 15.49231655571509 FREGAT DEB 1 49271U 11037PF 26151.14915702 .00018955 00000+0 30994-1 0 9992 2 49271 51.6227 53.0895 0914379 245.3590 104.9405 12.41880577222933 CSS (WENTIAN) 1 53239U 22085A 26165.60947823 .00020829 00000+0 24676-3 0 9996 2 53239 41.4694 337.6883 0007667 56.3828 303.7742 15.60706958288234 CSS (MENGTIAN) 1 54216U 22143A 26165.80144780 .00021074 00000+0 24953-3 0 9991 2 54216 41.4695 336.5204 0007660 57.6860 302.4720 15.60716016293390 HRC MONOBLOCK CAMERA 1 66052U 98067XR 26165.59815616 .00069866 00000+0 48751-3 0 9992 2 66052 51.6251 292.4685 0001263 275.6000 84.4855 15.73661541 37596 SZ-21 MODULE 1 66515U 25246C 26164.73115900 .00045764 00000+0 28446-3 0 9999 2 66515 41.4731 328.8460 0006751 328.3391 31.7047 15.76117488 33190 SOYUZ-MS 28 1 66664U 25275A 26165.80282117 .00008449 00000+0 16005-3 0 9997 2 66664 51.6336 311.8940 0004856 186.3522 173.7405 15.49231655571506 DUPLEX 1 66906U 98067XS 26165.55800144 .00033756 00000+0 37725-3 0 9994 2 66906 51.6286 302.7454 0003615 193.3623 166.7276 15.62419312 30242 ISS OBJECT XY 1 66912U 98067XY 26165.53619124 .00436812 88909-4 10164-2 0 9991 2 66912 51.6178 288.1843 0010274 312.6204 47.3938 15.96407729 30423 KNACKSAT-2 1 67683U 98067XZ 26165.65979306 .00044887 00000+0 55154-3 0 9998 2 67683 51.6308 307.1872 0009408 204.1419 155.9134 15.59771864 19882 CORAL 1 67684U 98067YA 26165.09002005 .00192136 00000+0 12083-2 0 9994 2 67684 51.6234 304.0900 0008933 237.2595 122.7544 15.75549221 19877 GXIBA-1 1 67685U 98067YB 26165.66462706 .00052183 00000+0 60209-3 0 9997 2 67685 51.6300 306.4652 0010633 202.3440 157.7092 15.61334881 19891 UITMSAT-2 1 67686U 98067YC 26165.10671371 .00084852 00000+0 86254-3 0 9993 2 67686 51.6283 307.9890 0006113 191.9757 168.1093 15.64421414 19826 LEOPARD 1 67687U 98067YD 26165.56149796 .00047312 00000+0 56037-3 0 9991 2 67687 51.6308 307.2917 0006620 184.1905 175.9034 15.60736988 19798 HMU-SAT2 1 67688U 98067YE 26165.66873789 .00062747 00000+0 67767-3 0 9990 2 67688 51.6296 305.7514 0006259 190.5533 169.5331 15.63005499 19829 CREW DRAGON 12 1 67796U 26031A 26165.80282117 .00008449 00000+0 16005-3 0 9995 2 67796 51.6336 311.8940 0004856 186.3522 173.7405 15.49231655571503 PROGRESS-MS 33 1 68319U 26058A 26165.80282117 .00008449 00000+0 16005-3 0 9996 2 68319 51.6336 311.8940 0004856 186.3522 173.7405 15.49231655571505 CYGNUS NG-24 1 68689U 26079A 26165.48029322 .00008443 00000+0 15998-3 0 9994 2 68689 51.6335 313.4905 0004925 185.2578 174.8360 15.49225904571455 PROGRESS-MS 34 1 68837U 26093A 26165.48029322 .00008443 00000+0 15998-3 0 9995 2 68837 51.6335 313.4905 0004925 185.2578 174.8360 15.49225904571450 TIANZHOU-10 1 69049U 26102A 26165.60947823 .00020829 00000+0 24676-3 0 9996 2 69049 41.4694 337.6883 0007667 56.3828 303.7742 15.60706958 5484 DRAGON CRS-34 1 69103U 26107A 26165.80282117 .00008449 00000+0 16005-3 0 9993 2 69103 51.6336 311.8940 0004856 186.3522 173.7405 15.49231655571507 SHENZHOU-23 (SZ-23) 1 69180U 26113A 26165.60947823 .00020829 00000+0 24676-3 0 9994 2 69180 41.4694 337.6883 0007667 56.3828 303.7742 15.60706958292949